| time (UTC) | temp C | wind direction | speed KPH | gust KPH | rain 1hr cm | rain 24hr cm | rain mn cm | humidity % | barometer mb |
| 20260505181055 | 13 | 147 | 0.0 | 0.0 | 0.30 | 4.09 | 0.81 | 95 | 1013.0 |
| 20260505180533 | 13 | 147 | 0.0 | 0.0 | 0.30 | 4.09 | 0.81 | 95 | 1012.9 |
| 20260505180045 | 13 | 147 | 0.0 | 0.0 | 0.30 | 4.09 | 0.81 | 95 | 1012.9 |
| 20260505175550 | 13 | 147 | 0.0 | 0.0 | 0.30 | 4.09 | 0.81 | 95 | 1012.9 |
| 20260505175040 | 13 | 147 | 0.0 | 0.0 | 0.30 | 4.09 | 0.81 | 95 | 1013.0 |
| 20260505174543 | 13 | 147 | 0.0 | 0.0 | 0.20 | 3.99 | 0.79 | 95 | 1013.0 |
| 20260505174039 | 13 | 147 | 0.0 | 0.0 | 0.20 | 3.99 | 0.79 | 94 | 1013.0 |
| 20260505173543 | 13 | 147 | 0.0 | 0.0 | 0.20 | 3.99 | 0.79 | 94 | 1013.0 |
| 20260505173032 | 13 | 147 | 0.0 | 0.0 | 0.20 | 3.99 | 0.79 | 94 | 1013.0 |
| 20260505172537 | 13 | 147 | 0.0 | 0.0 | 0.20 | 3.99 | 0.79 | 94 | 1013.0 |
| 20260505172059 | 13 | 147 | 0.0 | 0.0 | 0.20 | 3.99 | 0.79 | 94 | 1013.0 |
| 20260505171536 | 13 | 147 | 0.0 | 0.0 | 0.10 | 3.91 | 0.79 | 94 | 1013.0 |
| 20260505171045 | 13 | 147 | 0.0 | 0.0 | 0.00 | 3.81 | 0.76 | 94 | 1013.1 |
| 20260505170550 | 13 | 147 | 0.0 | 0.0 | 0.00 | 3.81 | 0.76 | 94 | 1013.2 |
| 20260505170048 | 13 | 147 | 0.0 | 0.0 | 0.00 | 3.81 | 0.76 | 93 | 1013.2 |
| 20260505165536 | 13 | 147 | 0.0 | 0.0 | 0.00 | 3.81 | 0.76 | 93 | 1013.3 |
| 20260505165057 | 13 | 147 | 0.0 | 0.0 | 0.00 | 3.81 | 0.76 | 93 | 1013.3 |
| 20260505164532 | 13 | 147 | 0.0 | 0.0 | 0.00 | 3.81 | 0.76 | 92 | 1013.3 |
| 20260505164040 | 13 | 147 | 0.0 | 0.0 | 0.00 | 3.81 | 0.76 | 92 | 1013.2 |
| 20260505163543 | 13 | 147 | 0.0 | 8.0 | 0.00 | 3.81 | 0.76 | 91 | 1013.2 |
| 20260505163035 | 13 | 147 | 0.0 | 9.7 | 0.00 | 3.81 | 0.76 | 90 | 1013.2 |
| 20260505162558 | 14 | 153 | 3.2 | 9.7 | 0.00 | 3.81 | 0.76 | 89 | 1013.3 |
| 20260505162044 | 14 | 160 | 0.0 | 0.0 | 0.00 | 3.81 | 0.76 | 88 | 1013.2 |
| 20260505161549 | 14 | 161 | 0.0 | 0.0 | 0.00 | 3.81 | 0.76 | 87 | 1013.2 |
| 20260505161057 | 14 | 161 | 0.0 | 0.0 | 0.00 | 3.81 | 0.76 | 86 | 1013.1 |
| 20260505160543 | 14 | 161 | 0.0 | 0.0 | 0.00 | 3.81 | 0.76 | 85 | 1013.0 |
| 20260505153044 | 15 | 161 | 0.0 | 0.0 | 0.00 | 3.81 | 0.76 | 83 | 1013.2 |
| 20260505152549 | 15 | 161 | 0.0 | 0.0 | 0.00 | 3.81 | 0.76 | 83 | 1013.2 |
| 20260505152040 | 15 | 161 | 0.0 | 0.0 | 0.00 | 3.81 | 0.76 | 83 | 1013.2 |
| 20260505151545 | 15 | 161 | 0.0 | 0.0 | 0.00 | 3.81 | 0.76 | 83 | 1013.2 |
| 20260505151031 | 15 | 161 | 0.0 | 0.0 | 0.00 | 3.81 | 0.76 | 84 | 1013.2 |
| 20260505150535 | 15 | 161 | 0.0 | 0.0 | 0.00 | 3.81 | 0.76 | 83 | 1013.2 |
| 20260505150105 | 15 | 161 | 0.0 | 0.0 | 0.00 | 3.81 | 0.76 | 83 | 1013.2 |
| 20260505140556 | 15 | 161 | 0.0 | 4.8 | 0.00 | 3.81 | 0.76 | 83 | 1013.5 |
| 20260505124557 | 13 | 170 | 0.0 | 0.0 | 0.00 | 3.81 | 0.76 | 90 | 1014.0 |
| 20260505124106 | 13 | 170 | 0.0 | 0.0 | 0.00 | 3.81 | 0.76 | 90 | 1014.0 |
| 20260505123549 | 13 | 170 | 0.0 | 0.0 | 0.00 | 3.81 | 0.76 | 91 | 1013.9 |
| 20260505123038 | 13 | 170 | 0.0 | 0.0 | 0.00 | 3.81 | 0.76 | 91 | 1014.0 |
| 20260505122542 | 13 | 170 | 0.0 | 0.0 | 0.00 | 3.81 | 0.76 | 91 | 1014.0 |
| 20260505122035 | 13 | 170 | 0.0 | 0.0 | 0.00 | 3.81 | 0.76 | 91 | 1014.0 |
| 20260505121539 | 13 | 170 | 0.0 | 0.0 | 0.00 | 3.81 | 0.76 | 91 | 1014.1 |
| 20260505121033 | 13 | 170 | 0.0 | 0.0 | 0.00 | 3.81 | 0.76 | 91 | 1014.1 |
| 20260505120537 | 13 | 170 | 0.0 | 0.0 | 0.00 | 3.81 | 0.76 | 91 | 1014.1 |
| 20260505120049 | 13 | 171 | 0.0 | 0.0 | 0.00 | 3.81 | 0.76 | 91 | 1014.1 |
| 20260505115555 | 13 | 304 | 0.0 | 0.0 | 0.00 | 3.81 | 0.76 | 91 | 1014.1 |
| 20260505115039 | 13 | 304 | 0.0 | 0.0 | 0.00 | 3.81 | 0.76 | 91 | 1014.1 |
| 20260505114543 | 13 | 304 | 0.0 | 0.0 | 0.00 | 3.81 | 0.76 | 92 | 1014.1 |
| 20260505114035 | 13 | 304 | 0.0 | 0.0 | 0.00 | 3.81 | 0.76 | 92 | 1014.0 |
| 20260505113539 | 13 | 304 | 0.0 | 0.0 | 0.00 | 3.81 | 0.76 | 91 | 1014.1 |
| 20260505113032 | 13 | 303 | 0.0 | 0.0 | 0.00 | 3.81 | 0.76 | 92 | 1014.1 |
| 20260505112536 | 13 | 304 | 0.0 | 0.0 | 0.00 | 3.81 | 0.76 | 91 | 1014.2 |
| 20260505112052 | 13 | 304 | 0.0 | 0.0 | 0.00 | 3.81 | 0.76 | 92 | 1014.1 |
| 20260505111535 | 13 | 303 | 0.0 | 0.0 | 0.00 | 3.81 | 0.76 | 92 | 1014.2 |
| 20260505111039 | 13 | 304 | 0.0 | 0.0 | 0.00 | 3.81 | 0.76 | 92 | 1014.2 |
| 20260505110545 | 13 | 250 | 0.0 | 0.0 | 0.00 | 3.81 | 0.76 | 92 | 1014.3 |
| 20260505102038 | 13 | 247 | 0.0 | 0.0 | 0.10 | 3.81 | 0.76 | 94 | 1014.4 |
| 20260505101543 | 13 | 257 | 0.0 | 0.0 | 0.10 | 3.81 | 0.76 | 94 | 1014.4 |
| 20260505101036 | 13 | 264 | 0.0 | 0.0 | 0.10 | 3.81 | 0.76 | 94 | 1014.4 |
| 20260505100542 | 12 | 277 | 0.0 | 0.0 | 0.10 | 3.81 | 0.76 | 94 | 1014.4 |
| 20260505100032 | 12 | 278 | 0.0 | 8.0 | 0.10 | 3.81 | 0.76 | 94 | 1014.4 |
| 20260505095536 | 12 | 241 | 0.0 | 12.9 | 0.10 | 3.81 | 0.76 | 94 | 1014.5 |
| 20260505095044 | 12 | 239 | 1.6 | 8.0 | 0.10 | 3.81 | 0.76 | 94 | 1014.4 |
| 20260505094606 | 12 | 241 | 0.0 | 0.0 | 0.00 | 3.71 | 0.74 | 94 | 1014.4 |
| 20260505094036 | 12 | 253 | 0.0 | 0.0 | 0.00 | 3.71 | 0.74 | 94 | 1014.4 |
| 20260505093541 | 12 | 254 | 0.0 | 0.0 | 0.00 | 3.71 | 0.74 | 94 | 1014.4 |
| 20260505093032 | 12 | 270 | 0.0 | 0.0 | 0.00 | 3.71 | 0.74 | 94 | 1014.5 |
| 20260505092537 | 12 | 234 | 0.0 | 0.0 | 0.00 | 3.71 | 0.74 | 94 | 1014.5 |
| 20260505092049 | 12 | 245 | 0.0 | 4.8 | 0.00 | 3.71 | 0.74 | 95 | 1014.5 |
| 20260505091543 | 12 | 253 | 0.0 | 6.4 | 0.00 | 3.71 | 0.74 | 95 | 1014.4 |
| 20260505091034 | 12 | 247 | 0.0 | 0.0 | 0.00 | 3.71 | 0.74 | 95 | 1014.4 |
| 20260505090600 | 12 | 246 | 0.0 | 6.4 | 0.00 | 3.71 | 0.74 | 95 | 1014.4 |
| 20260505090045 | 12 | 265 | 0.0 | 6.4 | 0.00 | 3.71 | 0.74 | 95 | 1014.4 |
| 20260505085549 | 12 | 236 | 0.0 | 0.0 | 0.00 | 3.71 | 0.74 | 95 | 1014.4 |
| 20260505085039 | 12 | 251 | 0.0 | 0.0 | 0.00 | 3.71 | 0.74 | 95 | 1014.3 |
| 20260505084544 | 13 | 262 | 0.0 | 0.0 | 0.00 | 3.71 | 0.74 | 95 | 1014.2 |
| 20260505084035 | 13 | 229 | 0.0 | 0.0 | 0.00 | 3.71 | 0.74 | 96 | 1014.1 |
| 20260505083539 | 13 | 229 | 0.0 | 1.6 | 0.00 | 3.71 | 0.74 | 96 | 1014.1 |
| 20260505083036 | 13 | 229 | 0.0 | 1.6 | 0.10 | 3.71 | 0.74 | 96 | 1014.1 |
| 20260505082537 | 13 | 276 | 0.0 | 0.0 | 0.10 | 3.71 | 0.74 | 96 | 1014.0 |
| 20260505082049 | 13 | 276 | 0.0 | 0.0 | 0.10 | 3.71 | 0.74 | 96 | 1014.0 |
| 20260505081548 | 13 | 276 | 0.0 | 0.0 | 0.10 | 3.71 | 0.74 | 96 | 1013.9 |
| 20260505081037 | 13 | 276 | 0.0 | 0.0 | 0.10 | 3.71 | 0.74 | 96 | 1013.9 |
| 20260505080542 | 13 | 276 | 0.0 | 0.0 | 0.20 | 3.71 | 0.74 | 96 | 1013.8 |
| 20260505080034 | 13 | 276 | 0.0 | 0.0 | 0.20 | 3.71 | 0.74 | 96 | 1013.8 |
| 20260505075538 | 12 | 276 | 0.0 | 0.0 | 0.20 | 3.71 | 0.74 | 96 | 1013.7 |
| 20260505075031 | 12 | 276 | 0.0 | 0.0 | 0.20 | 3.71 | 0.74 | 96 | 1013.8 |
| 20260505074556 | 12 | 276 | 0.0 | 0.0 | 0.20 | 3.71 | 0.74 | 96 | 1013.7 |
| 20260505074043 | 12 | 277 | 0.0 | 0.0 | 0.30 | 3.71 | 0.74 | 96 | 1013.6 |
| 20260505073546 | 12 | 276 | 0.0 | 0.0 | 0.30 | 3.71 | 0.74 | 96 | 1013.7 |
| 20260505073101 | 12 | 276 | 0.0 | 0.0 | 0.20 | 3.61 | 0.71 | 96 | 1013.7 |
| 20260505072544 | 12 | 277 | 0.0 | 0.0 | 0.20 | 3.61 | 0.71 | 96 | 1013.7 |
| 20260505072058 | 12 | 276 | 0.0 | 0.0 | 0.30 | 3.61 | 0.71 | 96 | 1013.7 |
| 20260505071532 | 12 | 276 | 0.0 | 0.0 | 0.30 | 3.61 | 0.71 | 96 | 1013.7 |
| 20260505071046 | 12 | 277 | 0.0 | 0.0 | 0.41 | 3.61 | 0.71 | 96 | 1013.6 |
| 20260505070548 | 12 | 277 | 0.0 | 0.0 | 0.30 | 3.51 | 0.71 | 96 | 1013.7 |
| 20260505070036 | 12 | 277 | 0.0 | 0.0 | 0.41 | 3.51 | 0.71 | 96 | 1013.6 |
| 20260505065540 | 12 | 277 | 0.0 | 0.0 | 0.41 | 3.51 | 0.71 | 96 | 1013.6 |
| 20260505065052 | 12 | 277 | 0.0 | 0.0 | 0.51 | 3.51 | 0.71 | 96 | 1013.7 |
| 20260505064553 | 12 | 277 | 0.0 | 0.0 | 0.71 | 3.51 | 0.71 | 96 | 1013.6 |
| 20260505064041 | 12 | 277 | 0.0 | 0.0 | 0.71 | 3.40 | 0.69 | 96 | 1013.7 |
| 20260505063546 | 12 | 277 | 0.0 | 0.0 | 0.89 | 3.40 | 0.69 | 96 | 1013.6 |
| 20260505063034 | 12 | 277 | 0.0 | 0.0 | 1.09 | 3.40 | 0.69 | 96 | 1013.7 |
| 20260505062538 | 11 | 277 | 0.0 | 0.0 | 1.09 | 3.30 | 0.66 | 95 | 1013.8 |
| 20260505062041 | 11 | 277 | 0.0 | 0.0 | 1.30 | 3.30 | 0.66 | 95 | 1013.8 |
| 20260505061603 | 11 | 277 | 0.0 | 0.0 | 1.40 | 3.30 | 0.66 | 95 | 1013.9 |
| 20260505061049 | 11 | 277 | 0.0 | 0.0 | 1.50 | 3.20 | 0.64 | 95 | 1013.9 |
| 20260505060532 | 11 | 277 | 0.0 | 0.0 | 1.60 | 3.20 | 0.64 | 95 | 1013.9 |
| 20260505060039 | 11 | 277 | 0.0 | 0.0 | 1.70 | 3.10 | 0.61 | 95 | 1014.0 |
| 20260505055540 | 11 | 277 | 0.0 | 0.0 | 1.91 | 3.10 | 0.61 | 95 | 1014.1 |
| 20260505055058 | 11 | 277 | 0.0 | 0.0 | 2.01 | 3.00 | 0.61 | 95 | 1014.1 |
| 20260505054542 | 11 | 277 | 0.0 | 0.0 | 1.91 | 2.79 | 0.56 | 95 | 1014.1 |
| 20260505054031 | 11 | 277 | 0.0 | 0.0 | 1.91 | 2.69 | 0.53 | 94 | 1014.0 |
| 20260505053536 | 11 | 277 | 0.0 | 0.0 | 1.70 | 2.39 | 0.48 | 94 | 1014.1 |
| 20260505053041 | 11 | 277 | 0.0 | 0.0 | 1.70 | 2.31 | 0.46 | 94 | 1014.0 |
| 20260505052541 | 11 | 277 | 0.0 | 0.0 | 1.60 | 2.21 | 0.43 | 94 | 1014.0 |
| 20260505052031 | 12 | 277 | 0.0 | 0.0 | 1.50 | 2.01 | 0.41 | 94 | 1014.0 |
| 20260505051554 | 12 | 277 | 0.0 | 0.0 | 1.50 | 1.91 | 0.38 | 93 | 1014.0 |
| 20260505051045 | 12 | 277 | 0.0 | 0.0 | 1.30 | 1.70 | 0.33 | 93 | 1014.0 |
| 20260505050610 | 12 | 277 | 0.0 | 0.0 | 1.09 | 1.50 | 0.30 | 93 | 1014.0 |
| 20260505041540 | 12 | 277 | 0.0 | 0.0 | 0.30 | 0.41 | 0.08 | 90 | 1013.9 |
| 20260505041030 | 12 | 277 | 0.0 | 0.0 | 0.30 | 0.41 | 0.08 | 89 | 1013.7 |
| 20260505040533 | 12 | 277 | 0.0 | 4.8 | 0.30 | 0.41 | 0.08 | 88 | 1013.7 |
| 20260505040046 | 12 | 294 | 0.0 | 4.8 | 0.20 | 0.30 | 0.05 | 87 | 1013.8 |
| 20260505035549 | 12 | 325 | 0.0 | 0.0 | 0.20 | 0.30 | 0.05 | 86 | 1013.7 |
| 20260505035039 | 12 | 325 | 0.0 | 0.0 | 0.10 | 0.20 | 0.05 | 86 | 1013.6 |
| 20260505034545 | 12 | 325 | 0.0 | 4.8 | 0.10 | 0.20 | 0.05 | 86 | 1013.7 |
| 20260505034057 | 12 | 325 | 0.0 | 4.8 | 0.10 | 0.20 | 0.05 | 86 | 1013.8 |
| 20260505033534 | 12 | 331 | 0.0 | 4.8 | 0.00 | 0.10 | 0.03 | 85 | 1013.7 |
| 20260505033039 | 12 | 331 | 0.0 | 0.0 | 0.00 | 0.10 | 0.03 | 85 | 1013.7 |
| 20260505032544 | 12 | 331 | 0.0 | 0.0 | 0.00 | 0.10 | 0.03 | 85 | 1013.7 |
| 20260505032042 | 12 | 331 | 0.0 | 0.0 | 0.00 | 0.10 | 0.03 | 85 | 1013.6 |
| 20260505031602 | 12 | 359 | 0.0 | 0.0 | 0.00 | 0.10 | 0.03 | 85 | 1013.6 |
| 20260505031035 | 12 | 359 | 0.0 | 0.0 | 0.00 | 0.10 | 0.03 | 84 | 1013.5 |
| 20260505030541 | 12 | 359 | 0.0 | 0.0 | 0.00 | 0.10 | 0.03 | 85 | 1013.5 |
| 20260505030053 | 12 | 10 | 0.0 | 0.0 | 0.00 | 0.10 | 0.03 | 83 | 1013.6 |
| 20260505025534 | 12 | 10 | 0.0 | 0.0 | 0.00 | 0.10 | 0.03 | 83 | 1013.7 |
| 20260505025044 | 12 | 10 | 0.0 | 0.0 | 0.00 | 0.10 | 0.03 | 84 | 1013.7 |
| 20260505024549 | 12 | 10 | 0.0 | 0.0 | 0.00 | 0.10 | 0.03 | 82 | 1013.8 |
| 20260505024059 | 12 | 10 | 0.0 | 0.0 | 0.00 | 0.10 | 0.03 | 82 | 1013.8 |
| 20260505023536 | 13 | 10 | 0.0 | 0.0 | 0.00 | 0.10 | 0.03 | 81 | 1013.9 |
| 20260505023044 | 13 | 10 | 0.0 | 0.0 | 0.00 | 0.10 | 0.03 | 80 | 1013.9 |
| 20260505022610 | 13 | 10 | 0.0 | 0.0 | 0.00 | 0.10 | 0.03 | 79 | 1013.9 |
| 20260505022043 | 13 | 10 | 0.0 | 0.0 | 0.00 | 0.10 | 0.03 | 77 | 1013.9 |
| 20260505021544 | 13 | 10 | 0.0 | 0.0 | 0.00 | 0.10 | 0.03 | 76 | 1014.0 |
| 20260505021119 | 13 | 10 | 0.0 | 0.0 | 0.00 | 0.10 | 0.03 | 76 | 1014.1 |
| 20260505020654 | 13 | 10 | 0.0 | 3.2 | 0.10 | 0.10 | 0.03 | 75 | 1014.0 |
| 20260505020044 | 13 | 10 | 0.0 | 11.3 | 0.10 | 0.10 | 0.03 | 75 | 1014.1 |
| 20260505015548 | 13 | 326 | 4.8 | 14.5 | 0.10 | 0.10 | 0.03 | 74 | 1014.1 |
| 20260505015040 | 13 | 321 | 8.0 | 17.7 | 0.10 | 0.10 | 0.03 | 74 | 1014.1 |
| 20260505014543 | 13 | 332 | 9.7 | 17.7 | 0.10 | 0.10 | 0.03 | 75 | 1014.3 |
| 20260505014031 | 13 | 292 | 11.3 | 16.1 | 0.10 | 0.10 | 0.03 | 76 | 1014.5 |
| 20260505013534 | 12 | 314 | 8.0 | 17.7 | 0.10 | 0.10 | 0.03 | 77 | 1014.6 |
| 20260505013039 | 13 | 331 | 12.9 | 19.3 | 0.10 | 0.10 | 0.03 | 77 | 1014.7 |
| 20260505012543 | 13 | 330 | 14.5 | 19.3 | 0.10 | 0.10 | 0.03 | 77 | 1014.7 |
| 20260505012057 | 13 | 318 | 9.7 | 17.7 | 0.10 | 0.10 | 0.03 | 75 | 1014.8 |
| 20260505011557 | 13 | 330 | 8.0 | 19.3 | 0.10 | 0.10 | 0.03 | 76 | 1015.0 |
| 20260505011038 | 13 | 311 | 8.0 | 19.3 | 0.10 | 0.10 | 0.03 | 76 | 1015.2 |
| 20260505010541 | 13 | 314 | 8.0 | 14.5 | 0.00 | 0.00 | 0.00 | 75 | 1015.3 |
| 20260505010050 | 13 | 312 | 8.0 | 12.9 | 0.00 | 0.00 | 0.00 | 75 | 1015.4 |
| 20260505005610 | 13 | 314 | 8.0 | 14.5 | 0.00 | 0.00 | 0.00 | 73 | 1015.6 |
| 20260505005056 | 14 | 317 | 8.0 | 14.5 | 0.00 | 0.00 | 0.00 | 71 | 1015.7 |
| 20260505004531 | 14 | 320 | 8.0 | 14.5 | 0.00 | 0.00 | 0.00 | 68 | 1015.8 |
| 20260505004056 | 14 | 321 | 9.7 | 14.5 | 0.00 | 0.00 | 0.00 | 66 | 1015.9 |
| 20260505003532 | 14 | 319 | 6.4 | 9.7 | 0.00 | 0.00 | 0.00 | 68 | 1016.0 |
| 20260505003040 | 13 | 304 | 3.2 | 8.0 | 0.00 | 0.00 | 0.00 | 70 | 1016.0 |
| 20260505002543 | 13 | 302 | 1.6 | 6.4 | 0.00 | 0.00 | 0.00 | 72 | 1016.0 |
| 20260505002045 | 14 | 302 | 0.0 | 1.6 | 0.00 | 0.00 | 0.00 | 72 | 1016.0 |
| 20260505001550 | 14 | 303 | 0.0 | 1.6 | 0.00 | 0.00 | 0.00 | 69 | 1016.0 |
| 20260505001033 | 14 | 302 | 0.0 | 4.8 | 0.00 | 0.00 | 0.00 | 69 | 1016.1 |
| 20260505000535 | 14 | 302 | 0.0 | 6.4 | 0.00 | 0.00 | 0.00 | 70 | 1016.1 |
| 20260505000034 | 14 | 302 | 0.0 | 3.2 | 0.00 | 0.00 | 0.00 | 70 | 1016.1 |
| 20260504235538 | 14 | 302 | 0.0 | 6.4 | 0.00 | 0.00 | 0.00 | 70 | 1016.2 |
| 20260504235047 | 14 | 302 | 1.6 | 6.4 | 0.00 | 0.00 | 0.00 | 69 | 1016.4 |
| 20260504234552 | 15 | 301 | 0.0 | 3.2 | 0.00 | 0.00 | 0.00 | 67 | 1016.5 |
| 20260504234045 | 15 | 313 | 0.0 | 0.0 | 0.00 | 0.00 | 0.00 | 65 | 1016.5 |
| 20260504233550 | 15 | 318 | 0.0 | 6.4 | 0.00 | 0.00 | 0.00 | 65 | 1016.5 |
| 20260504233041 | 15 | 318 | 3.2 | 6.4 | 0.00 | 0.00 | 0.00 | 66 | 1016.6 |
| 20260504232543 | 15 | 288 | 0.0 | 0.0 | 0.00 | 0.00 | 0.00 | 67 | 1016.8 |
| 20260504232119 | 15 | 288 | 0.0 | 0.0 | 0.00 | 0.00 | 0.00 | 65 | 1016.8 |
| 20260504231535 | 15 | 288 | 0.0 | 0.0 | 0.00 | 0.00 | 0.00 | 65 | 1016.9 |
| 20260504231050 | 15 | 288 | 0.0 | 0.0 | 0.00 | 0.00 | 0.00 | 65 | 1016.8 |
| 20260504230554 | 15 | 288 | 0.0 | 0.0 | 0.00 | 0.00 | 0.00 | 64 | 1016.8 |
| 20260504230044 | 15 | 288 | 0.0 | 0.0 | 0.00 | 0.00 | 0.00 | 63 | 1016.8 |
| 20260504225608 | 15 | 288 | 0.0 | 0.0 | 0.00 | 0.00 | 0.00 | 63 | 1016.8 |
| 20260504225038 | 15 | 288 | 0.0 | 0.0 | 0.00 | 0.00 | 0.00 | 64 | 1016.9 |
| 20260504224603 | 15 | 288 | 0.0 | 0.0 | 0.00 | 0.00 | 0.00 | 66 | 1016.9 |
| 20260504224058 | 15 | 288 | 0.0 | 0.0 | 0.00 | 0.00 | 0.00 | 64 | 1016.8 |
| 20260504223538 | 15 | 288 | 0.0 | 0.0 | 0.00 | 0.00 | 0.00 | 66 | 1016.8 |
| 20260504223058 | 15 | 288 | 0.0 | 0.0 | 0.00 | 0.00 | 0.00 | 66 | 1016.9 |
| 20260504222542 | 14 | 288 | 0.0 | 0.0 | 0.00 | 0.00 | 0.00 | 66 | 1016.8 |
| 20260504222055 | 14 | 288 | 0.0 | 0.0 | 0.00 | 0.00 | 0.00 | 67 | 1016.9 |
| 20260504221532 | 15 | 288 | 0.0 | 0.0 | 0.00 | 0.00 | 0.00 | 66 | 1016.8 |
| 20260504221040 | 15 | 288 | 0.0 | 0.0 | 0.00 | 0.00 | 0.00 | 66 | 1016.8 |
| 20260504220536 | 15 | 288 | 0.0 | 0.0 | 0.00 | 0.00 | 0.00 | 63 | 1016.9 |
| 20260504220048 | 15 | 289 | 0.0 | 0.0 | 0.00 | 0.00 | 0.00 | 64 | 1016.9 |
| 20260504215605 | 15 | 289 | 0.0 | 0.0 | 0.00 | 0.00 | 0.00 | 64 | 1016.9 |
| 20260504215104 | 15 | 289 | 0.0 | 0.0 | 0.00 | 0.00 | 0.00 | 63 | 1017.1 |
| 20260504214546 | 15 | 284 | 0.0 | 0.0 | 0.00 | 0.00 | 0.00 | 62 | 1017.1 |
| 20260504214037 | 15 | 284 | 0.0 | 0.0 | 0.00 | 0.00 | 0.00 | 62 | 1017.2 |
| 20260504213542 | 15 | 283 | 0.0 | 0.0 | 0.00 | 0.00 | 0.00 | 62 | 1017.3 |
| 20260504213103 | 15 | 283 | 0.0 | 0.0 | 0.00 | 0.00 | 0.00 | 64 | 1017.3 |
| 20260504212542 | 15 | 283 | 0.0 | 0.0 | 0.00 | 0.00 | 0.00 | 63 | 1017.3 |
| 20260504212055 | 15 | 283 | 0.0 | 0.0 | 0.00 | 0.00 | 0.00 | 63 | 1017.4 |
| 20260504211532 | 15 | 258 | 0.0 | 0.0 | 0.00 | 0.00 | 0.00 | 61 | 1017.4 |
| 20260504211044 | 16 | 258 | 0.0 | 0.0 | 0.00 | 0.00 | 0.00 | 61 | 1017.4 |
| 20260504210549 | 16 | 258 | 0.0 | 0.0 | 0.00 | 0.00 | 0.00 | 59 | 1017.4 |
| 20260504210038 | 16 | 264 | 0.0 | 0.0 | 0.00 | 0.00 | 0.00 | 57 | 1017.4 |
| 20260504205605 | 16 | 341 | 0.0 | 0.0 | 0.00 | 0.00 | 0.00 | 57 | 1017.5 |
| 20260504205035 | 16 | 347 | 0.0 | 0.0 | 0.00 | 0.00 | 0.00 | 56 | 1017.5 |
| 20260504204540 | 16 | 349 | 0.0 | 0.0 | 0.00 | 0.00 | 0.00 | 58 | 1017.4 |
| 20260504204030 | 16 | 349 | 0.0 | 0.0 | 0.00 | 0.00 | 0.00 | 56 | 1017.6 |
| 20260504203553 | 16 | 347 | 0.0 | 0.0 | 0.00 | 0.00 | 0.00 | 56 | 1017.7 |
| 20260504203046 | 16 | 347 | 0.0 | 0.0 | 0.00 | 0.00 | 0.00 | 56 | 1017.8 |
| 20260504202549 | 16 | 347 | 0.0 | 0.0 | 0.00 | 0.00 | 0.00 | 55 | 1017.8 |
| 20260504202036 | 17 | 347 | 0.0 | 0.0 | 0.00 | 0.00 | 0.00 | 55 | 1017.7 |
| 20260504201542 | 17 | 347 | 0.0 | 0.0 | 0.00 | 0.00 | 0.00 | 55 | 1017.7 |
| 20260504201031 | 17 | 345 | 0.0 | 0.0 | 0.00 | 0.00 | 0.00 | 53 | 1017.6 |
| 20260504200534 | 17 | 345 | 0.0 | 4.8 | 0.00 | 0.00 | 0.00 | 54 | 1017.4 |
| 20260504200042 | 17 | 345 | 1.6 | 4.8 | 0.00 | 0.00 | 0.00 | 54 | 1017.5 |
| 20260504195542 | 17 | 181 | 0.0 | 8.0 | 0.00 | 0.00 | 0.00 | 51 | 1017.4 |
| 20260504195034 | 18 | 193 | 0.0 | 8.0 | 0.00 | 0.00 | 0.00 | 50 | 1017.4 |
| 20260504194540 | 18 | 183 | 1.6 | 17.7 | 0.00 | 0.00 | 0.00 | 46 | 1017.3 |
| 20260504194101 | 18 | 64 | 6.4 | 24.1 | 0.00 | 0.00 | 0.00 | 46 | 1017.1 |
| 20260504193544 | 18 | 349 | 14.5 | 24.1 | 0.00 | 0.00 | 0.00 | 48 | 1017.1 |
| 20260504193053 | 17 | 324 | 16.1 | 22.5 | 0.00 | 0.00 | 0.00 | 49 | 1017.0 |
| 20260504192549 | 18 | 316 | 12.9 | 30.6 | 0.00 | 0.00 | 0.00 | 46 | 1016.9 |
| 20260504192039 | 17 | 327 | 17.7 | 30.6 | 0.00 | 0.00 | 0.00 | 50 | 1016.9 |
| 20260504191604 | 16 | 330 | 11.3 | 20.9 | 0.00 | 0.00 | 0.00 | 63 | 1017.1 |
| 20260504191058 | 16 | 298 | 1.6 | 6.4 | 0.00 | 0.00 | 0.00 | 65 | 1017.3 |
| 20260504190540 | 16 | 256 | 0.0 | 6.4 | 0.00 | 0.00 | 0.00 | 65 | 1017.3 |
| 20260504190034 | 16 | 259 | 1.6 | 6.4 | 0.00 | 0.00 | 0.00 | 65 | 1017.2 |
| 20260504185537 | 16 | 260 | 0.0 | 0.0 | 0.00 | 0.00 | 0.00 | 65 | 1017.1 |
| 20260504185036 | 16 | 316 | 0.0 | 12.9 | 0.00 | 0.00 | 0.00 | 61 | 1017.1 |
| 20260504184539 | 16 | 316 | 4.8 | 16.1 | 0.00 | 0.00 | 0.00 | 61 | 1017.0 |
| 20260504184039 | 16 | 311 | 4.8 | 16.1 | 0.00 | 0.00 | 0.00 | 65 | 1017.0 |
| 20260504183542 | 16 | 309 | 1.6 | 12.9 | 0.00 | 0.00 | 0.00 | 67 | 1017.0 |
| 20260504183104 | 16 | 309 | 1.6 | 6.4 | 0.00 | 0.00 | 0.00 | 68 | 1017.0 |
| 20260504182541 | 16 | 294 | 0.0 | 4.8 | 0.00 | 0.00 | 0.00 | 70 | 1017.0 |
| 20260504182055 | 16 | 286 | 0.0 | 4.8 | 0.00 | 0.00 | 0.00 | 68 | 1017.0 |
| 20260504181547 | 16 | 234 | 0.0 | 4.8 | 0.00 | 0.00 | 0.00 | 69 | 1017.0 |